Location: *
(46.3500°N, 10.9000°E)
Time: 18:53:51
(UTC+00:00)

STARLINK-1236 - Pass Details

Date: 09 April 2020
Orbit: 549 x 550 km, 53.0° (Epoch: 25 May)

Event Time Altitude Azimuth Distance (km) Brightness Sun altitude
Rises 19:19:26 0° 299° (WNW) 2,730 9.2 -14.2°
Reaches altitude 10° 19:21:42 10° 304° (NW) 1,834 7.7 -14.6°
Maximum altitude 19:25:49 56° 23° (NNE) 660 4.0 -15.2°
Enters shadow 19:27:58 26° 92° (E) 1,114 4.7 -15.5°
